STARLINK-32412, 61680

Orbit data source: Space-Track

STARLINK-32412, 61680 is a payload satellite owned by SpaceX/Seattle (US) in LEO that was launched on Sat, 26 Oct 2024 UTC via an FALCON 9 launch vehicle from the Air Force Eastern Test Range (AFETR). Payload-class satellites include a variety of spacecraft equipped with specific instruments for various scientific and technological missions. These include communications satellites like Starlink; space stations such as the ISS; scientific satellites like the Hubble; Earth observation satellites from companies like Planet Labs, Umbra, and HawkEye 360; GPS; miniature CubeSats for education and research; and military/defense satellites.

Loading next visibility...
Identifier
61680, 2024-193V
Orbit
LEO
Last TLE update
20 hours ago
Origin
Manufacturer
SpaceX/Seattle
Mission
Operational Commercial Communications
Bus & Motor
STARLINK V2M, Unknown motor
Mass
730 kg wet, ~700 kg dry
Launch date (UTC)
2024-10-26 (8 months ago)
Launch vehicle
FALCON 9
Launch site
Air Force Eastern Test Range (AFETR)
Object type
Payload
Rocket body
Debris
Shape & HBR
Box + 2 Pan, 29 m
Radar Cross Section
36.964 m², Large (>1 m²)

Expand to show TLE details & history

TLE from 20 hours ago
0 STARLINK-32412
1 61680U 24193V   25186.08570473  .00000045  00000-0  13661-4 0  9996
2 61680  53.1591 161.3615 0001230  75.9724 284.1413 15.30199788 38612
Epoch: 2025-07-05T02:03Z
TLE epoch observation values (Epoch: 2025-07-05T02:03:24.888Z)
Latitude
-0.00007°
Longitude
-152.82105°
Altitude
475.909 km
Speed
7.629 km/s
True Right ascension
10h 45m 26s
True Declination
0° 00' 00"
Sunlit
Object was in daylight at epoch
Visualization orbit readout
Latitude
-45.63745°
Longitude
153.6601°
Altitude
491.363 km
Speed
7.619 km/s
Apparent Right ascension
02h 33m 23s
Apparent Declination
-68° 04' 16"
Sunlit
Object is in daylight
Visualization observer readout
Local Sidereal Time
10:05:46
Azimuth
209.088° SW
Elevation
-45.041°
Doppler factor
1
Orbital elements
Apogee altitude
476.315 km
Perigee altitude
474.629 km
Semi-major axis
6,853.609 km
Eccentricity
0.00012
Inclination
53.1591°
RAAN
161.3615°
Arg. of periapsis
75.9724°
True anomaly
Unknown
Mean anomaly
284.1413°
Eccentric anomaly
Unknown
Mean motion
3.82529 °/min
Orbital period
94.11 mins
BSTAR
0.000013661
Loading maneuver chart data...
Loading SW <> Apogee altitude chart data...
Loading historical data...
Loading historical data...
Loading historical data...
Loading historical data...
Loading historical data...
Loading historical data...
Loading historical data...

STARLINK-32412 Visibility forecast

Observer location: undefined°, undefined°

Span
Click to sort rows by Start time (UTC) header in descending order
Start Az.
Max El. time (UTC)
Max El. Az.
Max El.
End time (UTC)
End Az.
5 mins2025-07-06 00:09:37.941Z182.878° SSW2025-07-06 00:11:37.941Z144.471° SSE23.344°2025-07-06 00:14:37.941Z78.13° E
5 mins2025-07-06 01:47:37.941Z267.416° W2025-07-06 01:49:37.941Z316.369° NNW30.918°2025-07-06 01:52:37.941Z31.951° NE
5 mins2025-07-06 06:44:37.941Z338.715° N2025-07-06 06:46:37.941Z23.587° NE25.025°2025-07-06 06:49:37.941Z86.901° E
5 mins2025-07-06 08:22:37.941Z286.629° WNW2025-07-06 08:24:37.941Z233.724° WSW32.618°2025-07-06 08:27:37.941Z159.655° S
|